星链-5929 (STARLINK-5929 )

导读 | 豆包AI

STARLINK-5929是美国SpaceX公司星链星座中的低轨卫星,于2023年3月17日发射升空,归属美国主导的全球卫星互联网项目。作为星链巨型星座组网的组成部分,它运行在近地轨道,助力星座实现全球覆盖,为偏远地区提供高速低延迟宽带互联网服务,推动全球网络普及,目前该卫星已在轨运行约三年,服务于星链网络的通信服务。

Basic Information
目录编号:
55959
目录名称:
STARLINK-5929
国际标识:
2023-037AX
轨道中心:
EARTH
卫星名称:
星链-5929
卫星全名:
星链-5929 (STARLINK-5929 )
卫星状态:
在轨 (已飞行1094 天)
发射日期:
2023-03-17 UTC
国别 :
美国 (US)
星等 :
--
Orbit Information
数据来源 国际轨道数据 AOE轨道数据
星历时间 2026-03-15T13:33:42+0800
12小时前
查看轨道信息
2026-03-14T08:00:00+0800
1天前
查看轨道信息
半长轴 6950.195km 6950.181km
偏心率 0.0002649 0.0002884
轨道倾角 69.999° 69.999°
近地点辐角 269.494° 267.989°
升交点赤经 250.466° 253.575°
平近点角 90.592° 290.014°
近地点 570.216km 570.039km
远地点 573.9km 574.049km
周期 96.107分钟 96.107分钟
每日圈数 14.983296 14.983339
Detailed Information
固有亮度:
5
最大亮度:
2.5
卫星平台:
Starlink v1.5
覆盖范围:
全球
运营商:
太空探索技术公司
运营商所在国:
美国
制造商(研发单位):
太空探索技术公司
制造商所在国:
美国
使用方式:
暂无
Satellite Introduction
星链(Starlink)计划是由太空探索技术公司(SpaceX)提出的一个巨型低轨卫星互联网星座项目,计划在2019年至2024年间在太空搭建由约1.2万颗卫星组成的“星链”网络,其中1584颗将部署在地球上空550千米处的近地轨道,并从2020年开始工作。该卫星仍在工作。
2D Orbit Map
3D Orbit Map
Orbit Altitude Analysis Chart
Orbit Inclination Analysis Chart
Orbit Comprehensive Analysis Chart
View Comprehensive Chart